map of ESB home
ESB - Airport
Location
City:  Ankara, Turkey
Name:Esenboga International Airport
ICAO:LTAC
IATA:ESB

Details
Type:Airport (Aerodrome, Airfield)
Use:Public/Civil, International (customs port of entry)
Latitude:4007'41"N (40.128056)
Longitude:3259'42"E (32.995000)
Elevation:3125 ft (953 m)
Variation:5.63E (WMM2015 magnetic declination)
0.09 annual change
Runways:2
Longest:12303 × 197 ft (3750 × 60 m), paved

Time
Time Zone:UTC+3
Local Time:

Weather
METAR:LTAC 181750Z VRB02KT 2900 BR SCT015 SCT025 BKN080 01/00 Q1022 NOSIG RMK RWY21L 00000KT RWY03L VRB02KT RWY21R 00000KT
TAF:LTAC 181040Z 1812/1912 VRB02KT 6000 SCT035 BKN090
BECMG 1816/1819 2500 BR BKN009
TEMPO 1903/1907 1200 BCFG BKN002
BECMG 1907/1910 8000 SCT040

Related Locations
Nearby:
Farthest:RVV: 11310 mi / 18202 km
Raivavae, Tubuai Islands, Austral Islands, PF

Find:

   beyond  
but within

Other Information
Maps:
NOTAMs:
Links:
Sources:

  
flag of Turkey   

Sectional Chart

Flight Planning
at skyvector.com

Satellite Image

Google Maps Satellite view

 

Copyright © 2004-2017 Karl L. Swartz. All rights reserved.
The Great Circle Mapper name and logo are trademarks of the Great Circle Mapper.
All other trademarks mentioned herein belong to their respective owners.
Please see credits for attibutions and further copyright information.

  Follow gcmap on Facebook Follow gcmap on Twitter Follow gcmap on Google+ GCmap on LinkedIn

hCard Microformat

Geo Microformat